TimeEST,TemperatureF,Dew PointF,Humidity,Sea Level PressureIn,VisibilityMPH,Wind Direction,Wind SpeedMPH,Gust SpeedMPH,PrecipitationIn,Events,Conditions,WindDirDegrees,DateUTC
12:51 AM,39.0,28.9,67,29.87,10.0,NW,5.8,-,N/A,,Overcast,320,2013-02-24 05:51:00
1:51 AM,37.0,28.9,73,29.86,10.0,NW,5.8,-,N/A,,Partly Cloudy,320,2013-02-24 06:51:00
2:51 AM,36.0,28.0,73,29.88,10.0,NW,3.5,-,N/A,,Mostly Cloudy,320,2013-02-24 07:51:00
3:51 AM,34.0,26.1,73,29.87,10.0,NNW,5.8,-,N/A,,Partly Cloudy,330,2013-02-24 08:51:00
4:20 AM,33.8,26.6,75,29.86,10.0,NW,6.9,-,N/A,,Mostly Cloudy,320,2013-02-24 09:20:00
4:48 AM,32.0,26.6,80,29.86,10.0,NNW,4.6,-,N/A,,Scattered Clouds,330,2013-02-24 09:48:00
4:51 AM,32.0,25.0,75,29.88,10.0,NNW,4.6,-,N/A,,Partly Cloudy,330,2013-02-24 09:51:00
5:51 AM,30.0,25.0,82,29.92,10.0,NW,4.6,-,N/A,,Clear,310,2013-02-24 10:51:00
6:51 AM,28.9,25.0,85,29.96,10.0,NW,5.8,-,N/A,,Clear,310,2013-02-24 11:51:00
7:51 AM,30.0,26.1,85,29.99,10.0,WNW,6.9,-,N/A,,Clear,290,2013-02-24 12:51:00
8:51 AM,33.1,26.1,75,30.00,10.0,WNW,6.9,-,N/A,,Partly Cloudy,290,2013-02-24 13:51:00
9:51 AM,35.1,25.0,67,30.00,10.0,WNW,11.5,-,N/A,,Partly Cloudy,300,2013-02-24 14:51:00
10:34 AM,35.6,24.8,65,29.97,10.0,NW,11.5,-,N/A,,Mostly Cloudy,310,2013-02-24 15:34:00
10:51 AM,36.0,24.1,62,30.02,10.0,NW,9.2,-,N/A,,Mostly Cloudy,320,2013-02-24 15:51:00
11:07 AM,39.2,24.8,56,29.96,10.0,WNW,9.2,19.6,N/A,,Scattered Clouds,290,2013-02-24 16:07:00
11:51 AM,39.0,21.9,50,30.02,10.0,West,13.8,19.6,N/A,,Clear,260,2013-02-24 16:51:00
12:51 PM,42.1,21.9,45,29.99,10.0,NNW,12.7,-,N/A,,Partly Cloudy,330,2013-02-24 17:51:00
1:51 PM,42.1,19.9,41,29.99,10.0,NW,11.5,25.3,N/A,,Clear,310,2013-02-24 18:51:00
2:51 PM,44.1,21.0,40,30.00,10.0,West,12.7,-,N/A,,Clear,270,2013-02-24 19:51:00
3:51 PM,43.0,19.0,38,30.01,10.0,NW,10.4,17.3,N/A,,Clear,310,2013-02-24 20:51:00
4:51 PM,42.1,19.0,40,30.03,10.0,NW,11.5,-,N/A,,Clear,320,2013-02-24 21:51:00
5:51 PM,39.9,18.0,41,30.06,10.0,NW,10.4,-,N/A,,Clear,310,2013-02-24 22:51:00
6:51 PM,37.0,19.0,48,30.09,10.0,NW,8.1,-,N/A,,Clear,320,2013-02-24 23:51:00
7:51 PM,35.1,19.0,52,30.10,10.0,NNW,5.8,-,N/A,,Clear,330,2013-02-25 00:51:00
8:51 PM,33.1,19.9,59,30.12,10.0,NNW,8.1,-,N/A,,Clear,340,2013-02-25 01:51:00
9:51 PM,30.9,19.9,64,30.13,10.0,NNW,4.6,-,N/A,,Clear,340,2013-02-25 02:51:00
10:51 PM,28.9,19.9,69,30.13,10.0,North,9.2,-,N/A,,Clear,10,2013-02-25 03:51:00
11:51 PM,27.0,19.0,72,30.13,10.0,North,9.2,-,N/A,,Clear,10,2013-02-25 04:51:00